• In Hungary
  • List of Countries
  • For 7 days
  • Water Temperature
  • Satellite Maps
  • Weather Map
  • News
  • Weather Widgets
  • user-avatar
    Login

    Hourly Weather Muhlhausen

    Today, 24 November, Friday

    Time Temperature Precipitation Wind Pressure Humidity
    00:00 +10°C° 0.1 mm 4 mps 738 mmHg 90%
    01:00 +10°C° 0.1 mm 4 mps 739 mmHg 91%
    02:00 +10°C° 0.1 mm 4 mps 738 mmHg 91%
    03:00 +10°C° 0.1 mm 4 mps 738 mmHg 91%
    04:00 +10°C° 0.1 mm 4 mps 738 mmHg 91%
    05:00 +10°C° 0 mm 4 mps 738 mmHg 90%
    06:00 +9°C° 0 mm 5 mps 737 mmHg 89%
    07:00 +9°C° 0 mm 6 mps 737 mmHg 88%
    08:00 +9°C° 0 mm 6 mps 737 mmHg 85%
    09:00 +10°C° 0 mm 7 mps 737 mmHg 82%
    10:00 +10°C° 0 mm 8 mps 736 mmHg 78%
    11:00 +11°C° 0.1 mm 8 mps 737 mmHg 78%
    12:00 +11°C° 0.1 mm 8 mps 737 mmHg 77%
    13:00 +11°C° 0.1 mm 8 mps 737 mmHg 77%
    14:00 +10°C° 0.4 mm 7 mps 737 mmHg 79%
    15:00 +10°C° 0.4 mm 6 mps 738 mmHg 82%
    16:00 +9°C° 0.4 mm 5 mps 738 mmHg 84%
    17:00 +10°C° 0.3 mm 4 mps 738 mmHg 86%
    18:00 +9°C° 0.3 mm 3 mps 738 mmHg 88%
    19:00 +8°C° 0.3 mm 2 mps 739 mmHg 89%
    20:00 +8°C° 0.5 mm 2 mps 739 mmHg 90%
    21:00 +8°C° 0.5 mm 1 mps 739 mmHg 90%
    22:00 +8°C° 0.5 mm 1 mps 739 mmHg 91%
    23:00 +8°C° 1 mm 1 mps 739 mmHg 92%

    Tomorrow, 25 November, Saturday

    Time Temperature Precipitation Wind Pressure Humidity
    00:00 +7°C° 1 mm 1 mps 738 mmHg 93%
    01:00 +6°C° 1 mm 2 mps 738 mmHg 94%
    02:00 +6°C° 1 mm 2 mps 737 mmHg 94%
    03:00 +6°C° 1 mm 2 mps 737 mmHg 94%
    04:00 +6°C° 1 mm 2 mps 736 mmHg 95%
    05:00 +6°C° 1.5 mm 2 mps 735 mmHg 95%
    06:00 +6°C° 1.5 mm 2 mps 735 mmHg 95%
    07:00 +5°C° 1.5 mm 2 mps 734 mmHg 95%
    08:00 +4°C° 1.6 mm 3 mps 734 mmHg 94%
    09:00 +4°C° 1.6 mm 3 mps 734 mmHg 94%
    10:00 +4°C° 1.6 mm 3 mps 733 mmHg 93%
    11:00 +4°C° 1.1 mm 3 mps 734 mmHg 92%
    12:00 +4°C° 1.1 mm 3 mps 734 mmHg 91%
    13:00 +4°C° 1.1 mm 3 mps 735 mmHg 90%
    14:00 +4°C° 0.8 mm 3 mps 735 mmHg 89%
    15:00 +4°C° 0.8 mm 4 mps 736 mmHg 88%
    16:00 +3°C° 0.8 mm 4 mps 736 mmHg 87%
    17:00 +3°C° 0.6 mm 4 mps 737 mmHg 88%
    18:00 +3°C° 0.6 mm 3 mps 738 mmHg 88%
    19:00 +3°C° 0.6 mm 3 mps 738 mmHg 89%
    20:00 +2°C° 0.2 mm 3 mps 739 mmHg 90%
    21:00 +2°C° 0.2 mm 3 mps 740 mmHg 90%
    22:00 +3°C° 0.2 mm 2 mps 740 mmHg 91%
    23:00 +3°C° 0 mm 2 mps 741 mmHg 91%

    Day after tomorrow, 26 November, Sunday

    Time Temperature Precipitation Wind Pressure Humidity
    00:00 +2°C° 0 mm 2 mps 741 mmHg 91%
    01:00 +2°C° 0 mm 2 mps 742 mmHg 90%
    02:00 +2°C° 0 mm 2 mps 742 mmHg 91%
    03:00 +1°C° 0 mm 2 mps 743 mmHg 91%
    04:00 +1°C° 0 mm 2 mps 743 mmHg 91%
    05:00 +1°C° 0 mm 2 mps 744 mmHg 92%
    06:00 -1°C° 0 mm 2 mps 744 mmHg 92%
    07:00 -1°C° 0 mm 2 mps 745 mmHg 92%
    08:00 0°C° 0 mm 3 mps 745 mmHg 89%
    09:00 +1°C° 0 mm 3 mps 745 mmHg 86%
    10:00 0°C° 0 mm 4 mps 746 mmHg 83%
    11:00 +1°C° 0 mm 4 mps 746 mmHg 80%
    12:00 +1°C° 0 mm 5 mps 746 mmHg 77%
    13:00 +2°C° 0 mm 5 mps 746 mmHg 74%
    14:00 +2°C° 0 mm 5 mps 746 mmHg 76%
    15:00 +1°C° 0 mm 4 mps 746 mmHg 78%
    16:00 0°C° 0 mm 4 mps 746 mmHg 80%
    17:00 0°C° 0 mm 4 mps 746 mmHg 82%
    18:00 0°C° 0 mm 4 mps 747 mmHg 84%
    19:00 -1°C° 0 mm 4 mps 747 mmHg 86%
    20:00 -1°C° 0 mm 4 mps 747 mmHg 87%
    21:00 -1°C° 0 mm 4 mps 747 mmHg 88%
    22:00 -1°C° 0 mm 4 mps 747 mmHg 89%
    23:00 -1°C° 0 mm 4 mps 747 mmHg 89%

    27 November, Monday

    Time Temperature Precipitation Wind Pressure Humidity
    00:00 -1°C° 0 mm 4 mps 747 mmHg 90%
    01:00 -1°C° 0 mm 4 mps 747 mmHg 90%
    02:00 -2°C° 0 mm 4 mps 747 mmHg 90%
    03:00 -2°C° 0 mm 4 mps 748 mmHg 90%
    04:00 -2°C° 0 mm 4 mps 748 mmHg 90%
    05:00 -2°C° 0 mm 4 mps 748 mmHg 90%
    06:00 -2°C° 0 mm 4 mps 748 mmHg 90%
    07:00 -2°C° 0 mm 4 mps 748 mmHg 91%
    08:00 -2°C° 0 mm 4 mps 748 mmHg 88%
    09:00 -1°C° 0 mm 4 mps 748 mmHg 86%
    10:00 -1°C° 0 mm 5 mps 748 mmHg 84%
    11:00 0°C° 0 mm 5 mps 748 mmHg 83%
    12:00 +1°C° 0 mm 5 mps 748 mmHg 81%
    13:00 +1°C° 0 mm 5 mps 747 mmHg 79%
    14:00 +1°C° 0 mm 5 mps 747 mmHg 80%
    15:00 +1°C° 0 mm 5 mps 747 mmHg 81%
    16:00 0°C° 0 mm 4 mps 746 mmHg 82%
    17:00 0°C° 0 mm 5 mps 746 mmHg 82%
    18:00 0°C° 0 mm 5 mps 745 mmHg 82%
    19:00 -1°C° 0 mm 6 mps 745 mmHg 82%
    20:00 -1°C° 0.2 mm 6 mps 745 mmHg 82%
    21:00 -1°C° 0.2 mm 6 mps 744 mmHg 83%
    22:00 -1°C° 0.2 mm 6 mps 744 mmHg 84%
    23:00 -1°C° 0.3 mm 6 mps 743 mmHg 84%

    28 November, Tuesday

    Time Temperature Precipitation Wind Pressure Humidity
    00:00 +1°C° 0.3 mm 6 mps 743 mmHg 84%
    01:00 0°C° 0.3 mm 7 mps 743 mmHg 85%
    02:00 +1°C° 0.1 mm 6 mps 742 mmHg 85%
    03:00 +1°C° 0.1 mm 6 mps 742 mmHg 86%
    04:00 +1°C° 0.1 mm 6 mps 741 mmHg 86%
    05:00 +1°C° 0.1 mm 6 mps 741 mmHg 87%
    06:00 +1°C° 0.1 mm 5 mps 741 mmHg 88%
    07:00 +1°C° 0.1 mm 5 mps 740 mmHg 88%
    08:00 +1°C° 0.1 mm 5 mps 740 mmHg 88%
    09:00 +1°C° 0.1 mm 5 mps 740 mmHg 87%
    10:00 +1°C° 0.1 mm 5 mps 740 mmHg 86%
    11:00 +2°C° 0 mm 5 mps 739 mmHg 85%
    12:00 +2°C° 0 mm 5 mps 739 mmHg 83%
    13:00 +2°C° 0 mm 5 mps 738 mmHg 82%
    14:00 +2°C° 0 mm 5 mps 737 mmHg 83%
    15:00 +2°C° 0 mm 5 mps 736 mmHg 85%
    16:00 +1°C° 0 mm 5 mps 735 mmHg 86%
    17:00 +2°C° 0.2 mm 5 mps 734 mmHg 86%
    18:00 +2°C° 0.2 mm 6 mps 734 mmHg 86%
    19:00 +2°C° 0.2 mm 6 mps 733 mmHg 86%
    20:00 +2°C° 0.3 mm 6 mps 732 mmHg 86%
    21:00 +2°C° 0.3 mm 6 mps 732 mmHg 86%
    22:00 +3°C° 0.3 mm 6 mps 731 mmHg 86%
    23:00 +3°C° 0.2 mm 7 mps 731 mmHg 86%

    29 November, Wednesday

    Time Temperature Precipitation Wind Pressure Humidity
    00:00 +3°C° 0.2 mm 7 mps 731 mmHg 86%
    01:00 +2°C° 0.2 mm 7 mps 730 mmHg 87%
    02:00 +3°C° 0.2 mm 7 mps 730 mmHg 86%
    03:00 +3°C° 0.2 mm 7 mps 730 mmHg 85%
    04:00 +3°C° 0.2 mm 7 mps 730 mmHg 84%
    05:00 +3°C° 0.1 mm 7 mps 730 mmHg 84%
    06:00 +3°C° 0.1 mm 7 mps 730 mmHg 83%
    07:00 +3°C° 0.1 mm 7 mps 730 mmHg 83%
    08:00 +3°C° 0.1 mm 7 mps 730 mmHg 82%
    09:00 +3°C° 0.1 mm 7 mps 730 mmHg 82%
    10:00 +3°C° 0.1 mm 7 mps 730 mmHg 81%
    11:00 +3°C° 0 mm 7 mps 730 mmHg 80%
    12:00 +3°C° 0 mm 7 mps 730 mmHg 79%
    13:00 +4°C° 0 mm 7 mps 730 mmHg 78%
    14:00 +3°C° 0.1 mm 6 mps 730 mmHg 79%
    15:00 +3°C° 0.1 mm 6 mps 730 mmHg 81%
    16:00 +3°C° 0.1 mm 5 mps 730 mmHg 83%
    17:00 +2°C° 0.2 mm 5 mps 730 mmHg 84%
    18:00 +2°C° 0.2 mm 5 mps 730 mmHg 86%
    19:00 +2°C° 0.2 mm 5 mps 730 mmHg 87%
    20:00 +2°C° 0.3 mm 5 mps 731 mmHg 88%
    21:00 +3°C° 0.3 mm 4 mps 731 mmHg 89%
    22:00 +3°C° 0.3 mm 4 mps 731 mmHg 90%
    23:00 +3°C° 0 mm 4 mps 731 mmHg 90%
    Show more